WGS F1 (USA 195)

Last updated on Jan. 22, 2021, 6:26 a.m. UTC

1 32258U 07046A   21021.79608045  .00000052  00000-0  00000-0 0  9999
2 32258   0.0142  64.5613 0000164 214.7914 134.5611  1.00272392 32599
UTC
Height (km)
Latitude
Longitude
Inclination
Orbital Period
UTC large
Height (km)
Speed (km/s)
/
Latitude / Longitude
Inclination (degrees)
Orbital Period (minutes)
Azimuth
Elevation
Range (km)
Doppler Factor
iOS Compass Heading
iOS Angle

Next 30 passes for location: Hong Kong

Rise time Rise Azimuth (degrees) Set time Set Azimuth (degrees) Duration Max altitude (degrees)

No matching passes for this satellites